Madison, MN

1:13 PM CST on February 26, 2017 (GMT -0600)
Madison-Lac Qui Parle County

Weather History for KDXX - May, 2013

Change the Weather History Date:

Friday, May 3, 2013

  Actual Average (KAQP) Record (KAQP)
Temperature  
Mean Temperature 37 °F -  
Max Temperature 51 °F 63 °F 82 °F (2000)
Min Temperature 23 °F 39 °F 17 °F (2005)
Degree Days  
Heating Degree Days 28    
Moisture  
Dew Point 21 °F    
Average Humidity 54    
Maximum Humidity 86    
Minimum Humidity 28    
Precipitation  
Precipitation 0.00 in - - ()
Sea Level Pressure  
Sea Level Pressure 30.31 in    
Wind  
Wind Speed 11 mph (North)    
Max Wind Speed 23 mph    
Max Gust Speed 30 mph    
Visibility 10 miles    
Events      
Averages and records for this station are not official NWS values.
T = Trace of Precipitation, MM = Missing Value Source: NWS Daily Summary

Daily Weather History Graph

Daily Weather History Graph

Search for Another Location

Airport or City:

Trip Planner

Search our weather history database for the weather conditions in past years. The results will help you decide how hot, cold, wet, or windy it might be!

Date:

Astronomy

May. 03, 2013 Rise Set
Actual Time 6:10 AM CDT 8:33 PM CDT
Civil Twilight 5:38 AM CDT 9:05 PM CDT
Nautical Twilight 4:57 AM CDT 9:46 PM CDT
Astronomical Twilight 4:11 AM CDT 10:32 PM CDT
Moon 2:52 AM CDT (5/3) 2:13 PM CDT (5/3)
Length of Visible Light 15h 27m
Length of Day
14h 22m
Last Quarter, 37% of the Moon is Illuminated
May 3
Last Quarter
May 9
New
May 17
First Quarter
May 24
Full
May 31
Last Quarter

Hourly Weather History & Observations

Time (CDT) Temp. Windchill Dew Point Humidity Pressure Visibility Wind Dir Wind Speed Gust Speed Precip Events Conditions
12:14 AM 30.2 °F 21.9 °F 23.0 °F 75% 30.49 in 10.0 mi North 9.2 mph - N/A   Clear
12:34 AM 28.4 °F 19.7 °F 23.0 °F 80% 30.48 in 10.0 mi North 9.2 mph - N/A   Clear
12:53 AM 28.4 °F 19.7 °F 23.0 °F 80% 30.48 in 10.0 mi North 9.2 mph - N/A   Clear
1:14 AM 28.4 °F 20.4 °F 23.0 °F 80% 30.47 in 10.0 mi North 8.1 mph - N/A   Clear
1:34 AM 28.4 °F 20.4 °F 23.0 °F 80% 30.47 in 10.0 mi North 8.1 mph - N/A   Clear
1:53 AM 26.6 °F 19.1 °F 21.2 °F 80% 30.47 in 10.0 mi North 6.9 mph - N/A   Clear
2:14 AM 26.6 °F 18.2 °F 21.2 °F 80% 30.46 in 10.0 mi NNW 8.1 mph - N/A   Clear
2:34 AM 26.6 °F 18.2 °F 21.2 °F 80% 30.46 in 10.0 mi NNW 8.1 mph - N/A   Clear
3:14 AM 26.6 °F 18.2 °F 21.2 °F 80% 30.45 in 10.0 mi NNW 8.1 mph - N/A   Clear
3:34 AM 26.6 °F 18.2 °F 21.2 °F 80% 30.44 in 10.0 mi NNW 8.1 mph - N/A   Clear
3:53 AM 24.8 °F 16.1 °F 21.2 °F 86% 30.43 in 10.0 mi NNW 8.1 mph - N/A   Clear
4:14 AM 24.8 °F 16.1 °F 21.2 °F 86% 30.43 in 10.0 mi NNW 8.1 mph - N/A   Clear
4:34 AM 24.8 °F 15.3 °F 21.2 °F 86% 30.43 in 10.0 mi NNW 9.2 mph - N/A   Clear
4:53 AM 24.8 °F 16.9 °F 21.2 °F 86% 30.43 in 10.0 mi NNW 6.9 mph - N/A   Clear
5:14 AM 24.8 °F 16.9 °F 21.2 °F 86% 30.43 in 10.0 mi North 6.9 mph - N/A   Clear
5:34 AM 24.8 °F 16.9 °F 21.2 °F 86% 30.42 in 10.0 mi North 6.9 mph - N/A   Clear
5:53 AM 23.0 °F 13.9 °F 19.4 °F 86% 30.41 in 10.0 mi NNW 8.1 mph - N/A   Clear
6:14 AM 23.0 °F 14.7 °F 19.4 °F 86% 30.41 in 10.0 mi NNW 6.9 mph - N/A   Clear
6:34 AM 24.8 °F 16.9 °F 21.2 °F 86% 30.40 in 10.0 mi North 6.9 mph - N/A   Clear
6:53 AM 24.8 °F 16.1 °F 21.2 °F 86% 30.41 in 10.0 mi NNW 8.1 mph - N/A   Clear
7:14 AM 26.6 °F 20.0 °F 21.2 °F 80% 30.41 in 10.0 mi NNW 5.8 mph - N/A   Clear
7:34 AM 26.6 °F 18.2 °F 23.0 °F 86% 30.41 in 10.0 mi NNW 8.1 mph - N/A   Clear
7:53 AM 28.4 °F 20.4 °F 24.8 °F 86% 30.40 in 10.0 mi North 8.1 mph - N/A   Clear
8:14 AM 32.0 °F 23.6 °F 24.8 °F 75% 30.39 in 10.0 mi North 10.4 mph - N/A   Clear
8:33 AM 33.8 °F 23.9 °F 24.8 °F 70% 30.38 in 10.0 mi NNE 15.0 mph - N/A   Clear
8:54 AM 35.6 °F 25.5 °F 23.0 °F 60% 30.37 in 10.0 mi NNE 17.3 mph 20.7 mph N/A   Clear
9:14 AM 35.6 °F 26.6 °F 21.2 °F 56% 30.37 in 10.0 mi NNE 13.8 mph 20.7 mph N/A   Clear
9:33 AM 37.4 °F 28.2 °F 21.2 °F 52% 30.36 in 10.0 mi North 16.1 mph - N/A   Clear
9:54 AM 37.4 °F 28.9 °F 21.2 °F 52% 30.35 in 10.0 mi North 13.8 mph 19.6 mph N/A   Clear
10:14 AM 37.4 °F 28.2 °F 21.2 °F 52% 30.35 in 10.0 mi NNE 16.1 mph 19.6 mph N/A   Clear
10:33 AM 39.2 °F 30.5 °F 21.2 °F 49% 30.34 in 10.0 mi North 16.1 mph 20.7 mph N/A   Clear
10:54 AM 39.2 °F 30.8 °F 21.2 °F 49% 30.34 in 10.0 mi North 15.0 mph 19.6 mph N/A   Clear
11:14 AM 41.0 °F 33.9 °F 21.2 °F 45% 30.33 in 10.0 mi North 12.7 mph 20.7 mph N/A   Clear
11:33 AM 41.0 °F 33.5 °F 23.0 °F 49% 30.32 in 10.0 mi North 13.8 mph 23.0 mph N/A   Clear
11:54 AM 42.8 °F 35.4 °F 21.2 °F 42% 30.31 in 10.0 mi North 15.0 mph 18.4 mph N/A   Clear
12:14 PM 42.8 °F 35.1 °F 21.2 °F 42% 30.29 in 10.0 mi North 16.1 mph 24.2 mph N/A   Clear
12:33 PM 44.6 °F 37.4 °F 21.2 °F 39% 30.27 in 10.0 mi North 16.1 mph 25.3 mph N/A   Clear
12:53 PM 44.6 °F 37.2 °F 21.2 °F 39% 30.27 in 10.0 mi North 17.3 mph 26.5 mph N/A   Clear
1:14 PM 46.4 °F 38.5 °F 21.2 °F 37% 30.26 in 10.0 mi North 21.9 mph 26.5 mph N/A   Clear
1:33 PM 46.4 °F 39.8 °F 21.2 °F 37% 30.25 in 10.0 mi NNE 16.1 mph 23.0 mph N/A   Clear
1:54 PM 48.2 °F - 19.4 °F 32% 30.25 in 10.0 mi NNE 20.7 mph - N/A   Clear
2:14 PM 48.2 °F - 19.4 °F 32% 30.24 in 10.0 mi North 15.0 mph 21.9 mph N/A   Clear
2:33 PM 50.0 °F - 21.2 °F 32% 30.23 in 10.0 mi North 19.6 mph 25.3 mph N/A   Clear
2:54 PM 51.8 °F - 19.4 °F 28% 30.22 in 10.0 mi North 18.4 mph 27.6 mph N/A   Clear
3:14 PM 50.0 °F - 21.2 °F 32% 30.21 in 10.0 mi North 16.1 mph 24.2 mph N/A   Clear
3:33 PM 50.0 °F - 19.4 °F 30% 30.21 in 10.0 mi NNE 23.0 mph 29.9 mph N/A   Clear
3:54 PM 51.8 °F - 19.4 °F 28% 30.19 in 10.0 mi North 16.1 mph 26.5 mph N/A   Clear
4:14 PM 50.0 °F - 19.4 °F 30% 30.19 in 10.0 mi North 20.7 mph 26.5 mph N/A   Clear
4:33 PM 50.0 °F - 17.6 °F 28% 30.19 in 10.0 mi NE 20.7 mph 25.3 mph N/A   Clear
4:54 PM 50.0 °F - 17.6 °F 28% 30.19 in 10.0 mi NNE 17.3 mph - N/A   Clear
5:13 PM 48.2 °F - 17.6 °F 30% 30.19 in 10.0 mi NNE 17.3 mph 23.0 mph N/A   Clear
5:34 PM 48.2 °F - 19.4 °F 32% 30.18 in 10.0 mi NNE 17.3 mph - N/A   Clear
5:54 PM 48.2 °F - 19.4 °F 32% 30.18 in 10.0 mi NNE 17.3 mph - N/A   Scattered Clouds
6:13 PM 48.2 °F - 17.6 °F 30% 30.18 in 10.0 mi NE 13.8 mph 21.9 mph N/A   Scattered Clouds
6:34 PM 46.4 °F 39.5 °F 17.6 °F 32% 30.18 in 10.0 mi NE 17.3 mph 20.7 mph N/A   Scattered Clouds
6:54 PM 46.4 °F 40.1 °F 19.4 °F 34% 30.19 in 10.0 mi NE 15.0 mph - N/A   Mostly Cloudy
7:13 PM 46.4 °F 39.2 °F 19.4 °F 34% 30.18 in 10.0 mi NE 18.4 mph - N/A   Scattered Clouds
7:33 PM 46.4 °F 39.8 °F 19.4 °F 34% 30.19 in 10.0 mi NE 16.1 mph 20.7 mph N/A   Scattered Clouds
7:54 PM 44.6 °F 38.4 °F 21.2 °F 39% 30.19 in 10.0 mi NE 12.7 mph - N/A   Scattered Clouds
8:13 PM 44.6 °F 37.4 °F 19.4 °F 37% 30.19 in 10.0 mi NE 16.1 mph - N/A   Mostly Cloudy
8:33 PM 44.6 °F 37.8 °F 19.4 °F 37% 30.19 in 10.0 mi NE 15.0 mph 19.6 mph N/A   Overcast
8:54 PM 42.8 °F 34.8 °F 19.4 °F 39% 30.19 in 10.0 mi NNE 17.3 mph - N/A   Overcast
9:13 PM 42.8 °F 36.2 °F 21.2 °F 42% 30.19 in 10.0 mi NNE 12.7 mph - N/A   Overcast
9:33 PM 42.8 °F 37.5 °F 21.2 °F 42% 30.20 in 10.0 mi NNE 9.2 mph - N/A   Overcast
9:54 PM 42.8 °F 37.5 °F 21.2 °F 42% 30.21 in 10.0 mi NE 9.2 mph - N/A   Overcast
10:13 PM 42.8 °F 37.0 °F 21.2 °F 42% 30.20 in 10.0 mi NE 10.4 mph - N/A   Overcast
10:34 PM 42.8 °F 36.6 °F 21.2 °F 42% 30.20 in 10.0 mi NE 11.5 mph - N/A   Mostly Cloudy
10:53 PM 42.8 °F 37.5 °F 21.2 °F 42% 30.20 in 10.0 mi NE 9.2 mph - N/A   Mostly Cloudy
11:14 PM 42.8 °F 38.0 °F 23.0 °F 46% 30.20 in 10.0 mi NE 8.1 mph - N/A   Overcast
11:34 PM 42.8 °F 38.0 °F 21.2 °F 42% 30.19 in 10.0 mi NNE 8.1 mph - N/A   Overcast
11:53 PM 42.8 °F 37.0 °F 21.2 °F 42% 30.19 in 10.0 mi NNE 10.4 mph - N/A   Overcast